TimeEET,TemperatureF,Dew PointF,Humidity,Sea Level PressureIn,VisibilityMPH,Wind Direction,Wind SpeedMPH,Gust SpeedMPH,PrecipitationIn,Events,Conditions,WindDirDegrees,DateUTC
12:00 AM,89.6,32.0,13,29.68,-9999.0,NW,9.2,-,N/A,,Clear,310,2013-06-28 22:00:00
1:00 AM,87.8,32.0,14,29.68,-9999.0,NNW,5.8,-,N/A,,Clear,330,2013-06-28 23:00:00
2:00 AM,87,30,6,29.65,6,NW,5.8,,,,,310,2013-06-29 00:00:00
2:00 AM,87.8,30.2,13,29.68,-9999.0,NW,5.8,-,N/A,,Clear,310,2013-06-29 00:00:00
3:00 AM,86.0,33.8,15,29.68,-9999.0,NW,5.8,-,N/A,,Clear,310,2013-06-29 01:00:00
4:00 AM,82.4,33.8,17,29.68,-9999.0,Variable,3.5,-,N/A,,Clear,0,2013-06-29 02:00:00
5:00 AM,82.4,35.6,19,29.71,-9999.0,NW,4.6,-,N/A,,Clear,320,2013-06-29 03:00:00
6:00 AM,82.4,39.2,21,29.71,-9999.0,NW,3.5,-,N/A,,Clear,320,2013-06-29 04:00:00
7:00 AM,87.8,39.2,18,29.71,-9999.0,WNW,4.6,-,N/A,,Clear,300,2013-06-29 05:00:00
8:00 AM,91,41,10,29.70,6,NNW,3.5,,,,,330,2013-06-29 06:00:00
8:00 AM,91.4,41.0,17,29.74,-9999.0,NNW,3.5,-,N/A,,Clear,330,2013-06-29 06:00:00
9:00 AM,96.8,41.0,15,29.74,-9999.0,North,5.8,-,N/A,,Clear,360,2013-06-29 07:00:00
10:00 AM,98.6,41.0,14,29.74,-9999.0,NNW,5.8,-,N/A,,Clear,340,2013-06-29 08:00:00
11:00 AM,102.2,39.2,11,29.71,-9999.0,NNW,5.8,-,N/A,,Clear,330,2013-06-29 09:00:00
12:00 PM,105.8,35.6,9,29.71,-9999.0,WSW,9.2,-,N/A,,Clear,250,2013-06-29 10:00:00
1:00 PM,107.6,33.8,8,29.68,-9999.0,SSE,5.8,-,N/A,,Clear,160,2013-06-29 11:00:00
2:00 PM,108,31,4,29.61,6,SSW,5.8,,,,,210,2013-06-29 12:00:00
2:00 PM,107.6,30.2,7,29.65,-9999.0,SSW,6.9,-,N/A,,Clear,210,2013-06-29 12:00:00
3:00 PM,109.4,33.8,7,29.65,-9999.0,South,8.1,-,N/A,,Clear,170,2013-06-29 13:00:00
4:00 PM,107.6,33.8,8,29.65,-9999.0,SE,8.1,-,N/A,,Clear,140,2013-06-29 14:00:00
5:00 PM,107.6,33.8,8,29.62,-9999.0,SSE,6.9,-,N/A,,Clear,160,2013-06-29 15:00:00
6:00 PM,105.8,30.2,7,29.65,-9999.0,West,9.2,-,N/A,,Clear,270,2013-06-29 16:00:00
8:00 PM,101,34,4,29.62,6,West,9.2,,,,,270,2013-06-29 18:00:00
8:00 PM,100.4,33.8,10,29.65,-9999.0,West,9.2,-,N/A,,Clear,270,2013-06-29 18:00:00
9:00 PM,98.6,33.8,10,29.68,-9999.0,West,6.9,-,N/A,,Clear,280,2013-06-29 19:00:00
10:00 PM,95.0,35.6,12,29.68,-9999.0,West,4.6,-,N/A,,Clear,270,2013-06-29 20:00:00
11:00 PM,93.2,37.4,14,29.68,-9999.0,West,5.8,-,N/A,,Clear,270,2013-06-29 21:00:00